Kezdőlap
METAR-TAF:

METAR-TAF

Repülőterek :

Boscobel Airport

Boscobel, Wisconsin, Amerikai Egyesült Államok

földrajzi szélesség: 43-09-22N, földrajzi hosszúság: 090-40-39W, magasság: 205 m

Jelenlegi meteorológiai megfigyelések

A jelentés 18 perccel ezelõtt készült, 10:53 UTC
Szélcsend
Hőmérséklet 7°C
Páratartalom 87%
Légköri nyomás 1017 hPa
Látótávolság: 16.1 km
Derült ég

METAR: KOVS 171053Z AUTO 00000KT 10SM CLR 07/05 A3002 RMK AO2 SLP168 T00720050

Idő: 06:11 (11:11 UTC)


TAF: hiányzik

Meteorológiai megfigyelések és előrejelzések több, mint 4000 repülőtéren (METAR és TAF jelentéseket).

A térképen piros és sárga pontok jelzik az elérhető meteorológiai állomásokat.

Mozgassa az egeret a pont fölött, hogy megjelenjen az állomás neve.

Azután kattintson az időjárási megfigyelések és előrejelzések megtekintéséhez.

A térkép megváltoztatása: kattintson a fekete keresztel jelölt zöld gombra ráközelítéshez, a vonallal jelölt zöld gombra távolításhoz, vagy a zöld nyilakra a szomszédos térképek eléréséhez.


METAR-TAF: